When you browse on this site, cookies collect data to enhance your experience and personalize the content and advertising you see.
Visit our Privacy Policy to learn more. By continuing to use the site, you agree to this use of cookies and data.
  • En España
  • Lista de países
  • Para 7 días
  • Temperatura del agua
  • El tiempo en el mapa
  • Informadores
  • user-avatar
    Iniciar sesión

    Tiempo cada hora Astana

    Hoy, 20 Agosto, Martes

    Tiempo Temperatura Precipitaciones Viento Presión Humedad
    00:00 +17°C° 0 mm 4 mps 734 mmHg 80%
    01:00 +16°C° 0 mm 3 mps 734 mmHg 81%
    02:00 +16°C° 0 mm 3 mps 734 mmHg 82%
    03:00 +14°C° 0 mm 3 mps 735 mmHg 82%
    04:00 +14°C° 0 mm 3 mps 735 mmHg 83%
    05:00 +14°C° 0 mm 3 mps 735 mmHg 83%
    06:00 +16°C° 0 mm 3 mps 735 mmHg 74%
    07:00 +18°C° 0 mm 3 mps 735 mmHg 65%
    08:00 +19°C° 0 mm 3 mps 736 mmHg 56%
    09:00 +20°C° 0 mm 3 mps 736 mmHg 50%
    10:00 +21°C° 0 mm 3 mps 736 mmHg 44%
    11:00 +22°C° 0 mm 3 mps 736 mmHg 38%
    12:00 +24°C° 0 mm 3 mps 735 mmHg 35%
    13:00 +25°C° 0 mm 3 mps 735 mmHg 31%
    14:00 +26°C° 0 mm 3 mps 735 mmHg 28%
    15:00 +26°C° 0 mm 3 mps 734 mmHg 27%
    16:00 +26°C° 0 mm 3 mps 734 mmHg 27%
    17:00 +26°C° 0 mm 3 mps 734 mmHg 26%
    18:00 +24°C° 0 mm 3 mps 734 mmHg 30%
    19:00 +21°C° 0 mm 2 mps 733 mmHg 34%
    20:00 +19°C° 0 mm 2 mps 733 mmHg 38%
    21:00 +19°C° 0 mm 2 mps 733 mmHg 41%
    22:00 +18°C° 0 mm 2 mps 732 mmHg 44%
    23:00 +18°C° 0 mm 1 mps 732 mmHg 47%

    Mañana, 21 Agosto, Miércoles

    Tiempo Temperatura Precipitaciones Viento Presión Humedad
    00:00 +18°C° 0 mm 1 mps 731 mmHg 46%
    01:00 +19°C° 0 mm 1 mps 731 mmHg 45%
    02:00 +19°C° 0 mm 1 mps 730 mmHg 44%
    03:00 +19°C° 0 mm 1 mps 730 mmHg 45%
    04:00 +19°C° 0 mm 1 mps 730 mmHg 45%
    05:00 +19°C° 0 mm 1 mps 729 mmHg 46%
    06:00 +18°C° 0 mm 2 mps 729 mmHg 47%
    07:00 +19°C° 0 mm 3 mps 728 mmHg 48%
    08:00 +19°C° 0 mm 3 mps 728 mmHg 49%
    09:00 +18°C° 3.1 mm 2 mps 728 mmHg 62%
    10:00 +18°C° 3.1 mm 1 mps 727 mmHg 75%
    11:00 +14°C° 3.1 mm 0 mps 727 mmHg 89%
    12:00 +16°C° 1.2 mm 1 mps 727 mmHg 88%
    13:00 +16°C° 1.2 mm 2 mps 727 mmHg 88%
    14:00 +16°C° 1.2 mm 3 mps 727 mmHg 87%
    15:00 +17°C° 1 mm 4 mps 727 mmHg 82%
    16:00 +17°C° 1 mm 4 mps 727 mmHg 76%
    17:00 +16°C° 1 mm 5 mps 727 mmHg 71%
    18:00 +15°C° 0 mm 5 mps 727 mmHg 74%
    19:00 +14°C° 0 mm 4 mps 727 mmHg 77%
    20:00 +13°C° 0 mm 4 mps 727 mmHg 80%
    21:00 +13°C° 0 mm 3 mps 727 mmHg 81%
    22:00 +12°C° 0 mm 3 mps 727 mmHg 81%
    23:00 +12°C° 0 mm 3 mps 727 mmHg 81%

    Pasado mañana, 22 Agosto, Jueves

    Tiempo Temperatura Precipitaciones Viento Presión Humedad
    00:00 +12°C° 0 mm 3 mps 727 mmHg 82%
    01:00 +11°C° 0 mm 3 mps 727 mmHg 83%
    02:00 +11°C° 0 mm 3 mps 727 mmHg 83%
    03:00 +10°C° 0 mm 3 mps 728 mmHg 83%
    04:00 +10°C° 0 mm 3 mps 728 mmHg 83%
    05:00 +10°C° 0 mm 3 mps 728 mmHg 84%
    06:00 +11°C° 0 mm 3 mps 728 mmHg 78%
    07:00 +13°C° 0 mm 3 mps 728 mmHg 72%
    08:00 +14°C° 0 mm 4 mps 728 mmHg 66%
    09:00 +17°C° 0 mm 4 mps 728 mmHg 60%
    10:00 +18°C° 0 mm 4 mps 728 mmHg 53%
    11:00 +19°C° 0 mm 4 mps 729 mmHg 47%
    12:00 +19°C° 0 mm 4 mps 728 mmHg 49%
    13:00 +19°C° 0 mm 5 mps 728 mmHg 51%
    14:00 +19°C° 0 mm 5 mps 728 mmHg 53%
    15:00 +19°C° 0.1 mm 5 mps 728 mmHg 54%
    16:00 +20°C° 0.1 mm 5 mps 729 mmHg 55%
    17:00 +20°C° 0.1 mm 4 mps 729 mmHg 57%
    18:00 +19°C° 0 mm 4 mps 729 mmHg 62%
    19:00 +17°C° 0 mm 3 mps 729 mmHg 67%
    20:00 +16°C° 0 mm 3 mps 729 mmHg 72%
    21:00 +16°C° 0 mm 3 mps 729 mmHg 75%
    22:00 +14°C° 0 mm 3 mps 729 mmHg 78%
    23:00 +13°C° 0 mm 3 mps 729 mmHg 81%

    23 Agosto, Viernes

    Tiempo Temperatura Precipitaciones Viento Presión Humedad
    00:00 +13°C° 0 mm 3 mps 729 mmHg 84%
    01:00 +13°C° 0 mm 3 mps 729 mmHg 86%
    02:00 +13°C° 0 mm 3 mps 729 mmHg 88%
    03:00 +12°C° 0 mm 3 mps 730 mmHg 89%
    04:00 +12°C° 0 mm 3 mps 730 mmHg 90%
    05:00 +12°C° 0 mm 3 mps 730 mmHg 91%
    06:00 +13°C° 0 mm 3 mps 731 mmHg 84%
    07:00 +16°C° 0 mm 3 mps 731 mmHg 77%
    08:00 +18°C° 0 mm 3 mps 731 mmHg 70%
    09:00 +19°C° 0.1 mm 3 mps 731 mmHg 62%
    10:00 +21°C° 0.1 mm 4 mps 732 mmHg 55%
    11:00 +22°C° 0.1 mm 4 mps 732 mmHg 48%
    12:00 +22°C° 0 mm 4 mps 732 mmHg 46%
    13:00 +23°C° 0 mm 4 mps 732 mmHg 45%
    14:00 +24°C° 0 mm 3 mps 732 mmHg 44%
    15:00 +24°C° 0 mm 3 mps 732 mmHg 44%
    16:00 +24°C° 0 mm 3 mps 732 mmHg 45%
    17:00 +22°C° 0 mm 3 mps 732 mmHg 45%
    18:00 +21°C° 0 mm 3 mps 732 mmHg 48%
    19:00 +20°C° 0 mm 2 mps 732 mmHg 51%
    20:00 +20°C° 0 mm 1 mps 732 mmHg 54%
    21:00 +19°C° 0 mm 1 mps 732 mmHg 57%
    22:00 +19°C° 0 mm 1 mps 732 mmHg 59%
    23:00 +16°C° 0 mm 0 mps 732 mmHg 62%

    24 Agosto, Sábado

    Tiempo Temperatura Precipitaciones Viento Presión Humedad
    00:00 +16°C° 0 mm 1 mps 732 mmHg 64%
    01:00 +16°C° 0 mm 1 mps 732 mmHg 65%
    02:00 +16°C° 0 mm 2 mps 732 mmHg 67%
    03:00 +16°C° 0 mm 2 mps 733 mmHg 67%
    04:00 +16°C° 0 mm 2 mps 733 mmHg 68%
    05:00 +16°C° 0 mm 3 mps 733 mmHg 68%
    06:00 +17°C° 0 mm 3 mps 733 mmHg 65%
    07:00 +18°C° 0 mm 3 mps 733 mmHg 61%
    08:00 +20°C° 0 mm 4 mps 734 mmHg 58%
    09:00 +22°C° 0 mm 4 mps 734 mmHg 55%
    10:00 +23°C° 0 mm 5 mps 734 mmHg 52%
    11:00 +26°C° 0 mm 5 mps 734 mmHg 49%
    12:00 +27°C° 0 mm 5 mps 734 mmHg 48%
    13:00 +27°C° 0 mm 5 mps 734 mmHg 47%
    14:00 +28°C° 0 mm 5 mps 734 mmHg 47%
    15:00 +28°C° 0.1 mm 5 mps 734 mmHg 47%
    16:00 +28°C° 0.1 mm 4 mps 734 mmHg 48%
    17:00 +28°C° 0.1 mm 4 mps 734 mmHg 48%
    18:00 +26°C° 0.1 mm 3 mps 734 mmHg 55%
    19:00 +24°C° 0.1 mm 3 mps 734 mmHg 62%
    20:00 +23°C° 0.1 mm 2 mps 734 mmHg 68%
    21:00 +22°C° 0 mm 1 mps 733 mmHg 72%
    22:00 +22°C° 0 mm 1 mps 733 mmHg 75%
    23:00 +21°C° 0 mm 1 mps 733 mmHg 79%

    25 Agosto, Domingo

    Tiempo Temperatura Precipitaciones Viento Presión Humedad
    00:00 +21°C° 0 mm 1 mps 733 mmHg 80%
    01:00 +20°C° 0 mm 1 mps 733 mmHg 82%
    02:00 +20°C° 0 mm 1 mps 733 mmHg 84%
    03:00 +19°C° 0 mm 1 mps 733 mmHg 85%
    04:00 +19°C° 0 mm 1 mps 733 mmHg 86%
    05:00 +19°C° 0 mm 1 mps 733 mmHg 87%
    06:00 +20°C° 0 mm 1 mps 733 mmHg 80%
    07:00 +22°C° 0 mm 1 mps 733 mmHg 74%
    08:00 +24°C° 0 mm 1 mps 733 mmHg 67%
    09:00 +25°C° 0 mm 1 mps 733 mmHg 60%
    10:00 +26°C° 0 mm 1 mps 733 mmHg 54%
    11:00 +28°C° 0 mm 1 mps 733 mmHg 47%
    12:00 +29°C° 0 mm 1 mps 733 mmHg 44%
    13:00 +29°C° 0 mm 1 mps 732 mmHg 40%
    14:00 +30°C° 0 mm 1 mps 732 mmHg 37%
    15:00 +30°C° 0 mm 1 mps 732 mmHg 36%
    16:00 +30°C° 0 mm 2 mps 731 mmHg 35%
    17:00 +30°C° 0 mm 2 mps 731 mmHg 35%
    18:00 +29°C° 0 mm 2 mps 731 mmHg 39%
    19:00 +27°C° 0 mm 2 mps 731 mmHg 43%
    20:00 +25°C° 0 mm 3 mps 731 mmHg 47%
    21:00 +25°C° 0 mm 3 mps 730 mmHg 49%
    22:00 +24°C° 0 mm 3 mps 730 mmHg 50%
    23:00 +22°C° 0 mm 4 mps 730 mmHg 52%
    Mostrar más